ORBCOMM FM114 [+] (41179 NORAD) Tracking and Keplerian Element Data

This shows tracking and keplerian element data for the satellite.

Feedback or suggestion? Click here.




ElementValue
Catalog41179
NameORBCOMM FM114 [+]
Epoch Orbit15454
Epoch Day322.75512626
Epoch Year2018
RAAN65.3735
Inclination47.004
Eccentricity0.0002863
Argument of Perigee184.0807
Mean Anonmoly176.0054
Mean Motion14.54746426
Decay Rate-7.2E-07
L11 41179U 15081A 18322.75512626 -.00000072 00000-0 21788-4 0 9997
L22 41179 47.0040 65.3735 0002863 184.0807 176.0054 14.54746426154540

Live tracking and technical data element details for ORBCOMM FM114 [+] (NORAD 41179). ORBCOMM FM114 [+] can be tracked NOW for your location showing map with azimuth and elevation plus other details from your city location.

Track the satellite on the map from your city or location and see movement details for azimuth, elevation, latitude, longitude, range, height, and movement on the map or in text.







IsCatalogInMostPopularTable: catalog: 41179, numindb: 135
Update: records affected: 1



GetName: 41179 ORBCOMM FM114 [+]

Hit Count: updated at: Tue, 20 Nov 2018 00:09:39 GMT